Regional Weather Roundup
Issued by NWS Albany, NY

Home | Current Version | Previous Version | Text Only | Print | Product List | Glossary On
Versions: 1 2 3 4 5 6 7 8 9 10 11 12 13 14 15 16 17 18 19 20 21 22 23 24 25 26 27
000
ASUS41 KALY 220210
RWRALY

NEW YORK STATE HOURLY WEATHER ROUNDUP
NATIONAL WEATHER SERVICE ALBANY NY
900 PM EST SUN JAN 21 2018

NOTE: "FAIR" INDICATES FEW OR NO CLOUDS BELOW 12,000 FEET WITH NO
SIGNIFICANT WEATHER AND/OR NO OBSTRUCTIONS TO VISIBILITY.

NYZ032-033-038>043-046>054-057>066-NYZ062>081-082-084-220300-
EAST


CITY           SKY/WX    TMP DP  RH WIND       PRES   REMARKS
ALBANY         CLOUDY    31  27  85 CALM      30.18S
GLENS FALLS    FAIR      25  25 100 SW3       30.17R
POUGHKEEPSIE   CLOUDY    35  30  82 CALM      30.17R
MONTGOMERY     CLOUDY    35  31  85 CALM      30.15R
WHITE PLAINS   MOCLDY    40  30  67 SE7       30.15F
ISLIP          CLOUDY    40  32  73 CALM      30.19R
NEW YORK CITY  CLOUDY    48  32  53 S8        30.17F
CENTRAL PARK   CLOUDY    49  34  56 CALM      30.19F
$$

NYZ005>009-017-018-044>046-055-056-220300-
CENTRAL


CITY           SKY/WX    TMP DP  RH WIND       PRES   REMARKS
FULTON         CLOUDY    39  30  70 SE3       30.11S
SYRACUSE       CLOUDY    36  31  82 E6        30.11S WCI  31
ROME           CLOUDY    37  30  75 E7        30.14F WCI  32
ELMIRA         CLOUDY    35  35 100 CALM      30.10S FOG
BINGHAMTON     FOG       35  34  96 S5        30.08S VSB 1/2 WCI  31
MONTICELLO     LGT RAIN  34  34 100 CALM      30.14S VSB 1/4
$$

NYZ026>034-041>043-087-220300-
NORTH


CITY           SKY/WX    TMP DP  RH WIND       PRES   REMARKS
WATERTOWN      MOCLDY    31  30  96 NE3       30.11F FOG
FORT DRUM      NOT AVBL
OGDENSBURG     MOCLDY    33  30  88 E6        30.14S WCI  28
MASSENA        CLOUDY    31  26  82 NE9       30.17S WCI  23
SARANAC LAKE   CLOUDY    32  32 100 CALM      30.07S
PLATTSBURGH    CLOUDY    30  22  72 N8        30.18S WCI  22
$$

NYZ001>004-010>016-019>021-085-220300-
WEST


CITY           SKY/WX    TMP DP  RH WIND       PRES   REMARKS
NIAGARA FALLS  CLOUDY    38  35  89 CALM      30.07S VSB 1
BUFFALO        DRIZZLE   37  37 100 CALM      30.07S FOG
DUNKIRK        LGT RAIN  41  36  82 CALM      30.06F
JAMESTOWN      LGT RAIN  38  37  97 S5        30.04S VSB 1/4 WCI  34
WELLSVILLE     CLOUDY    41  40  96 S5        30.06S FOG
ROCHESTER      CLOUDY    39  35  86 CALM      30.08F
PENN YAN       CLOUDY    35  32  88 CALM      30.08S FOG
$$

             KEY
       WCI = WIND CHILL INDEX
       VSB = VISIBILITY
       HX  = HEAT INDEX
$$




USA.gov is the U.S. government's official web portal to all federal, state and local government web resources and services.